TimeEDT,TemperatureF,Dew PointF,Humidity,Sea Level PressureIn,VisibilityMPH,Wind Direction,Wind SpeedMPH,Gust SpeedMPH,PrecipitationIn,Events,Conditions,WindDirDegrees,DateUTC
12:25 AM,69.8,64.4,83,29.92,8.0,South,8.1,-,N/A,,Overcast,170,2013-09-20 04:25:00
12:53 AM,69.1,66.0,90,29.91,8.0,South,9.2,-,N/A,,Overcast,180,2013-09-20 04:53:00
1:18 AM,69.8,66.2,88,29.91,8.0,South,9.2,-,N/A,,Mostly Cloudy,190,2013-09-20 05:18:00
1:53 AM,70.0,64.9,84,29.89,10.0,South,12.7,17.3,N/A,,Scattered Clouds,180,2013-09-20 05:53:00
2:53 AM,69.1,64.9,87,29.88,10.0,South,8.1,-,N/A,,Mostly Cloudy,180,2013-09-20 06:53:00
3:24 AM,69.8,64.4,83,29.88,10.0,South,9.2,-,N/A,,Overcast,190,2013-09-20 07:24:00
3:33 AM,69.8,64.4,83,29.88,10.0,South,6.9,-,N/A,,Overcast,180,2013-09-20 07:33:00
3:53 AM,69.1,64.9,87,29.87,10.0,South,6.9,-,N/A,,Overcast,190,2013-09-20 07:53:00
4:04 AM,69.8,64.4,83,29.88,10.0,SSW,6.9,-,N/A,,Overcast,210,2013-09-20 08:04:00
4:37 AM,69.8,64.4,83,29.87,10.0,South,8.1,-,N/A,,Overcast,190,2013-09-20 08:37:00
4:53 AM,70.0,66.0,87,29.85,10.0,South,8.1,-,N/A,,Overcast,180,2013-09-20 08:53:00
5:18 AM,69.8,66.2,88,29.87,9.0,South,5.8,-,0.00,Rain,Light Rain,170,2013-09-20 09:18:00
5:31 AM,69.8,66.2,88,29.86,8.0,SSE,9.2,-,0.00,Rain,Light Rain,150,2013-09-20 09:31:00
5:48 AM,69.8,66.2,88,29.86,7.0,South,6.9,-,0.00,,Overcast,180,2013-09-20 09:48:00
5:53 AM,69.1,66.9,93,29.84,6.0,South,8.1,-,0.00,,Overcast,180,2013-09-20 09:53:00
6:53 AM,69.1,66.9,93,29.83,4.0,South,6.9,-,N/A,,Overcast,180,2013-09-20 10:53:00
7:44 AM,69.8,66.2,88,29.84,2.0,SSE,9.2,-,N/A,,Overcast,160,2013-09-20 11:44:00
7:53 AM,69.1,66.9,93,29.83,2.0,South,6.9,-,N/A,,Overcast,170,2013-09-20 11:53:00
8:53 AM,70.0,68.0,93,29.83,2.0,South,9.2,-,N/A,,Overcast,170,2013-09-20 12:53:00
9:03 AM,69.8,66.2,88,29.84,1.8,South,8.1,-,N/A,,Overcast,190,2013-09-20 13:03:00
9:53 AM,70.0,68.0,93,29.83,2.0,SSW,8.1,-,N/A,,Overcast,200,2013-09-20 13:53:00
10:17 AM,71.6,68.0,88,29.84,3.0,SSW,6.9,-,N/A,,Overcast,210,2013-09-20 14:17:00
10:41 AM,73.4,68.0,83,29.84,4.0,SSW,11.5,-,N/A,,Haze,210,2013-09-20 14:41:00
10:53 AM,75.0,68.0,79,29.82,5.0,SSW,9.2,-,N/A,,Haze,210,2013-09-20 14:53:00
11:09 AM,75.2,68.0,78,29.84,6.0,SSW,9.2,16.1,N/A,,Haze,210,2013-09-20 15:09:00
11:53 AM,75.9,66.9,74,29.81,9.0,WSW,15.0,21.9,0.00,Rain,Light Rain,240,2013-09-20 15:53:00
12:45 PM,78.8,66.2,65,29.81,10.0,SW,13.8,21.9,0.00,,Mostly Cloudy,220,2013-09-20 16:45:00
12:53 PM,78.1,66.0,66,29.79,10.0,SW,13.8,20.7,0.00,,Mostly Cloudy,220,2013-09-20 16:53:00
1:17 PM,78.8,66.2,65,29.80,10.0,SW,12.7,-,N/A,,Mostly Cloudy,230,2013-09-20 17:17:00
1:41 PM,78.8,66.2,65,29.79,10.0,SW,8.1,-,N/A,,Mostly Cloudy,220,2013-09-20 17:41:00
1:53 PM,79.0,66.9,66,29.77,10.0,WSW,9.2,-,N/A,,Mostly Cloudy,250,2013-09-20 17:53:00
2:20 PM,78.8,66.2,65,29.79,10.0,WSW,9.2,18.4,N/A,,Mostly Cloudy,250,2013-09-20 18:20:00
2:40 PM,78.8,66.2,65,29.78,10.0,SW,10.4,-,N/A,,Mostly Cloudy,220,2013-09-20 18:40:00
2:53 PM,80.1,66.0,62,29.76,10.0,WSW,15.0,18.4,N/A,,Mostly Cloudy,240,2013-09-20 18:53:00
3:53 PM,78.1,64.9,64,29.75,10.0,WSW,17.3,23.0,0.00,Rain,Light Rain,240,2013-09-20 19:53:00
4:53 PM,70.0,64.9,84,29.75,4.0,WSW,11.5,-,0.04,Rain,Light Rain,240,2013-09-20 20:53:00
5:53 PM,70.0,66.9,90,29.75,10.0,SW,4.6,-,0.00,,Overcast,220,2013-09-20 21:53:00
6:53 PM,70.0,64.9,84,29.74,10.0,SW,5.8,-,0.00,Rain,Light Rain,230,2013-09-20 22:53:00
7:53 PM,69.1,64.9,87,29.74,10.0,WSW,5.8,-,0.00,,Overcast,240,2013-09-20 23:53:00
8:53 PM,68.0,66.0,93,29.74,10.0,SW,5.8,-,0.01,Rain,Light Rain,220,2013-09-21 00:53:00
9:48 PM,68.0,64.4,88,29.75,8.0,SW,5.8,-,0.02,Rain,Light Rain,230,2013-09-21 01:48:00
9:53 PM,68.0,64.9,90,29.74,8.0,SW,6.9,-,0.02,Rain,Light Rain,230,2013-09-21 01:53:00
10:12 PM,66.2,64.4,94,29.75,8.0,SW,5.8,-,0.01,Rain,Light Rain,220,2013-09-21 02:12:00
10:48 PM,66.2,64.4,94,29.75,5.0,WSW,5.8,-,0.03,Rain,Light Rain,240,2013-09-21 02:48:00
10:53 PM,66.9,64.9,93,29.74,5.0,WSW,6.9,-,0.03,Rain,Light Rain,240,2013-09-21 02:53:00
11:05 PM,66.2,64.4,94,29.75,6.0,West,5.8,-,0.01,Rain,Light Rain,260,2013-09-21 03:05:00
11:53 PM,66.9,64.9,93,29.73,6.0,West,8.1,-,0.05,Rain,Light Rain,270,2013-09-21 03:53:00